Время (UTC), дата Ветер
(°,м/с) 
Видим.   Явления Облачность Т
(°С)
Тd
(°С)
f(%) Тe
(°С)
Pmin
(гПа)
dP
(гПа)
Po
(мм)
O2
(г/м3)
Тmin Tmax R s Состояние
почвы
00 01.12.15 240 (ЮЗ) н/о  ливневой снег  10/10 600 м кучево-дожд. 
[Cb cap]
-5 -6.7 88 -6  1026.3  -0.9  743  306  -7.3    0.7  16  равномерный
сухой снег
100% 
09 01.12.15 260 (З) 20000 м    10/8 600 м кучево-дожд., средняя 
[Cb cap|As op]
-0.8 -3.3 83 1029.9  1.9  746  302           
12 01.12.15 250 (З) 4000 м    9/9 600 м кучево-дожд. 
[Cb cap]
-0.8 -2.6 88 1031  1.1  747  302    -0.7  0.7     
15 01.12.15 250 (З) 4000 м    9/8 600 м кучево-дожд., средняя 
[Cb cap|Ac trans]
-0.9 -3.1 85 -2  1031.6  0.5  747  303           
18 01.12.15 240 (ЮЗ) 4000 м    10/10 600 м кучево-дожд. 
[Cb cap]
-1 -2.6 89 1031.2  -0.4  747  302           
21 01.12.15 240 (ЮЗ) 4000 м  {ливн. осадки}  10/10 600 м кучево-дожд. 
[Cb cap]
-0.6 -2.4 88 -1  1030.3  -0.8  747  302           
00 02.12.15 230 (ЮЗ) н/о  ливневой снег  10/10 600 м кучево-дожд. 
[Cb cap]
-0.8 -1.7 94 -2  1030  -0.3  746  302  -1.2    0.6  18  равномерный
мокрый или
старый снег
100% 
03 02.12.15 250 (З) 20000 м  слаб. ливневой снег  10/10 600 м кучево-дожд. 
[Cb cap]
-0.8 -1.7 94 1030.8  0.8  747  302           
06 02.12.15 250 (З) 20000 м  в посл. час ливневой снег  9/8 600 м кучево-дожд., средняя 
[Cb cap|Ac trans]
+0.3 -1.4 88 +1  1030.2  -0.5  747  301           
09 02.12.15 250 (З) 20000 м  {ливн. осадки}  9/6 600 м кучево-дожд., средняя 
[Cb cap|Ac trans]
-0.2 -2.6 84 -1  1030.4  0.1  747  301           
12 02.12.15 250 (З) 4000 м  {ливн. осадки}  10/10 600 м кучево-дожд. 
[Cb cap]
-0.4 -1.6 92 1030.2  -0.2  746  301    +0.4  0.6     
15 02.12.15 230 (ЮЗ) 4000 м    10/5 600 м кучево-дожд., верхняя 
[Cb cap|Cs]
+0 -1.2 92 -1  1029.7  -0.4  746  301           
18 02.12.15 340 (С) 4000 м    9/9 600 м кучево-дожд. 
[Cb cap]
+0.5 -0.9 90 +1  1018.5  -0.7  738  297           
21 02.12.15 тихо ()   4000 м    10/4 600 м кучево-дожд., средняя 
[Cb cap|Ac As]
+0 -1.4 90 1027.9  -1  745  300           
00 08.12.15 220 (ЮЗ) 4000 м  позёмок  6/3 2000 м средняя, верхняя 
[Ac trans|Ci fib]
-6.6 -10.7 73 -10  1018.3  -1  737  305  -7.7    0.0  22  равномерный
сухой снег
100% 
06 18.01.16 тихо ()   2000 м  дымка  ясно 
-29 -30.7 85 -29  1038.5  -0.5  749  340           
12 18.01.16 230 (ЮЗ) н/о  дымка  ясно 
-29.2 -30.9 85 -30  1039.4  0.6  750  340    -27.2       
18 18.01.16 тихо ()   н/о  слаб. снег  10/0 верхняя 
[Cs]
-26.9 -28.7 85 -27  1039.4  0.3  750  337           
00 19.01.16 тихо ()   н/о  слаб. снег  10/0 верхняя 
[Cs]
-28.2 -30 85 -28  1041  0.9  751  339  -29.4    0.0  21  равномерный
сухой снег
100% 
06 19.01.16 тихо ()   4000 м  слаб. снег  10/0 верхняя 
[Cs]
-25.2 -27.1 84 -25  1043.4  1.2  753  336           
12 19.01.16 тихо ()   н/о  слаб. снег  10/0 верхняя 
[Cs]
-25.8 -27 90 -26  1048  2.7  757  338    -22.5  0.3     
18 19.01.16 тихо ()   н/о  ледяные иглы{снег}  ясно 
-28.2 -30 85 -28  1050.2  0.9  758  343           
00 20.01.16 тихо ()   н/о  слаб. снег  10/0 2000 м средняя 
[Ac As]
-26.5 -28.4 84 -27  1052.1  1.1  760  341  -28.4    0.0  22  равномерный
сухой снег
100% 
06 20.01.16 тихо ()   2000 м  слаб. снег  10/10 2000 м 
[Ac As]
-21.4 -23.2 85 -21  1053.2  0.2  761  334           
12 20.01.16 220 (ЮЗ) н/о  слаб. ливневой снег  9/6 600 м кучево-дожд., средняя, верхняя 
[Cb cap|Ac trans|Ci fib]
-20.7 -21.9 90 -21  1055.8  1.1  763  334    -19.6  0.4     
18 20.01.16 тихо ()   н/о  слаб. ливневой снег  9/8 600 м кучево-дожд., верхняя 
[Cb cap|Ci fib]
-20.6 -21.8 90 -21  1057.7  0.6  764  335           
00 21.01.16 тихо ()   н/о  дымка{ливн. осадки}  10/0 верхняя 
[Cs]
-22.2 -23.5 89 -22  1059.3  0.9  765  337  -22.4    0.3  23  равномерный
сухой снег
100% 
06 21.01.16 070 (В) 4000 м  дымка{снег}  10/0 верхняя 
[Cs]
-19.5 -20.7 90 -20  1059.8  766  334           
12 21.01.16 250 (З) н/о  слаб. снег  10/5 2000 м средняя, верхняя 
[Ac trans|Cs]
-18.2 -19.4 90 -18  1061  767  333    -17.6  0.0     
18 21.01.16 250 (З) н/о  дымка{снег}  ясно 
-18.3 -20.2 85 -21  1060.8  -0.6  767  333           
00 22.01.16 240 (ЮЗ) 2{10}  4000 м    9/4 600 м кучево-дожд., средняя 
[Cb cap|Ac trans]
-17.5 -20.1 80 -20  1059.8  -0.3  766  331  -18.5    0.0  22  равномерный
сухой снег
100% 
06 22.01.16 тихо ()   20000 м    3/0 верхняя 
[Ci fib]
-14 -18.3 70 -14  1058.5  -0.8  766  327           
12 22.01.16 тихо ()   н/о  дымка  ясно 
-17.7 -18.9 90 -18  1057.9  -0.4  765  331    -12.9       
18 22.01.16 тихо ()   н/о  дымка  ясно 
-21.1 -22.3 90 -21  1055.2  -1.4  762  335           
00 23.01.16 тихо ()   н/о  дымка  ясно 
-22.5 -23.7 90 -23  1052  -1.5  760  335  -22.7      21  равномерный
сухой снег
100% 
06 23.01.16 080 (В) н/о  дымка  ясно 
-15.8 -17.7 85 -16  1047.8  -2.2  758  325           
12 23.01.16 220 (ЮЗ) н/о  дымка  ясно 
-14.2 -15.5 90 -14  1045.6  0.4  756  323    -12.1       
18 23.01.16 260 (З) 4000 м    3/0 верхняя 
[Ci fib]
-10.5 -15.8 65 -12  1045  0.7  756  318           
00 24.01.16 240 (ЮЗ) 4000 м  слаб. снег  10/0 верхняя 
[Cs]
-15.6 -18.3 80 -19  1048.8  2.1  758  326  -15.6    0.0  21  равномерный
сухой снег
100% 
06 24.01.16 230 (ЮЗ) 20000 м  {снег}  3/0 верхняя 
[Ci fib]
-13.7 -17.2 75 -17  1050.7  1.1  760  324           
12 24.01.16 240 (ЮЗ) 4000 м    6/0 верхняя 
[Ci fib]
-15.4 -18.1 80 -20  1050.7  -0.1  760  326    -13  0.0     
18 24.01.16 240 (ЮЗ) 4000 м    6/0 2000 м средняя 
[Ac trans]
-18.2 -20.8 80 -21  1051  -0.4  760  330           
00 25.01.16 тихо ()   4000 м  слаб. снег  10/0 средняя 
[Ac As]
-20.8 -22 90 -21  1051.2  0.4  760  333  -22.2    0.0  22  равномерный
сухой снег
100% 
06 25.01.16 060 (СВ) 20000 м  {снег}  3/3 600 м кучево-дожд. 
[Cb cap]
-17.8 -21.2 75 -18  1050.3  -0.2  759  329           
12 25.01.16 240 (ЮЗ) 4000 м    8/0 верхняя 
[Ci fib]
-21.4 -23.2 85 -22  1050.9  0.1  759  334    -17.3  0.2     
18 25.01.16 230 (ЮЗ) 4000 м    8/0 верхняя 
[Ci fib]
-22.8 -24 90 -23  1049.3  -1.3  758  335           
00 26.01.16 тихо ()   4000 м    4/0 верхняя 
[Ci fib]
-24.9 -26.2 89 -25  1046.6  -1.2  756  337  -25      22  равномерный
сухой снег
100% 
06 26.01.16 070 (В) 10 км    3/0 верхняя 
[Ci fib]
-15.6 -19 75 -16  1040.7  -2.3  752  323           
12 26.01.16 230 (ЮЗ) 4000 м    ясно 
-13.4 -17.7 70 -13  1035.8  -1.8  749  319    -12.2       
18 26.01.16 тихо ()   4000 м    10/0 верхняя 
[Cs]
-19.7 -21.6 85 -20  1037.5  0.4  750  327           
00 27.01.16 230 (ЮЗ) 4000 м  слаб. ливневой снег  9/5 600 м кучево-дожд., средняя, верхняя 
[Cb cap|Ac trans|Ci fib]
-23.9 -25.7 85 -24  1039.4  1.2  751  333  -24.2    0.0  22  равномерный
сухой снег
100% 
06 27.01.16 020 (С) 10 км  слаб. снег{ливн. осадки}  10/3 2000 м средняя, верхняя 
[Ac trans|Cs]
-20.4 -22.3 85 -21  1041.3  1.2  752  329           
12 27.01.16 240 (ЮЗ) 4000 м  {снег}  3/0 верхняя 
[Ci fib]
-24.7 -26.5 85 -25  1043.6  754  336    -20  0.0     
18 27.01.16 тихо ()   4000 м    4/0 верхняя 
[Ci fib]
-27.4 -28.5 90 -27  1045.1  0.3  754  340           
00 28.01.16 240 (ЮЗ) 4000 м  ледяные иглы  3/0 верхняя 
[Ci fib]
-28.4 -30.2 84 -29  1045.7  0.4  755  341  -28.8      22  равномерный
сухой снег
100% 
06 28.01.16 тихо ()   2000 м  дымка  ясно 
-25 -26.8 85 -25  1046.4  0.2  756  337           
12 28.01.16 230 (ЮЗ) 4000 м    ясно 
-25.8 -27.6 85 -26  1047.8  1.1  756  338    -22.3       
18 28.01.16 250 (З) 4000 м    ясно 
-26.6 -28.4 85 -27  1047.4  -0.4  756  339           
00 29.01.16 230 (ЮЗ) 4000 м    ясно 
-27.8 -29.7 84 -28  1047.4  -0.1  756  341  -28      22  равномерный
сухой снег
100% 
06 29.01.16 070 (В) 2000 м  дымка  ясно 
-22.5 -24.3 85 -23  1045  -1  755  333           
12 29.01.16 240 (ЮЗ) н/о  дымка  3/0 верхняя 
[Ci fib]
-23.9 -25.7 85 -24  1044.6  -0.1  754  335    -20       
18 29.01.16 тихо ()   н/о  дымка  ясно 
-25.3 -26.6 89 -25  1043.1  -0.7  753  336           
00 30.01.16 тихо ()   н/о  дымка  ясно 
-27.5 -29.3 85 -28  1043.3  0.2  753  339  -27.5      22  равномерный
сухой снег
100% 
06 30.01.16 тихо ()   2000 м  дымка  ясно 
-20.5 -22.4 85 -21  1042.7  -0.2  754  330           
12 30.01.16 тихо ()   н/о  дымка  ясно 
-20.6 -21.8 90 -21  1043.1  0.3  754  330    -17.4       
18 30.01.16 тихо ()   н/о  дымка  ясно 
-22.9 -24.2 89 -23  1042.8  -0.4  753  333           
00 31.01.16 тихо ()   н/о  дымка  ясно 
-26 -27.1 90 -26  1042.8  -0.3  753  337  -26      22  равномерный
сухой снег
100% 
06 31.01.16 070 (В) 4000 м  дымка  ясно 
-19.6 -21.5 85 -20  1041.3  -0.4  752  328           
12 31.01.16 тихо ()   н/о  дымка  ясно 
-19.5 -20.7 90 -20  1040.9  0.3  752  328    -16.1       
18 31.01.16 050 (СВ) н/о  дымка  6/0 верхняя 
[Ci fib]
-21.6 -22.8 90 -22  1039.7  -0.6  751  330           
00 01.02.16 220 (ЮЗ) 4{10}  4000 м    9/0 верхняя 
[Ci fib]
-9.8 -19.1 47 -14  1036.9  -0.3  750  315  -21.8      22  равномерный
мокрый или
старый снег
100% 
06 01.02.16 220 (ЮЗ) 20000 м    10/10 2000 м 
[Ac As]
-7.7 -19.1 40 -10  1036.2  -0.9  750  312           
12 01.02.16 220 (ЮЗ) 5{10}  4000 м  позёмок  10/10 2000 м 
[Ac As]
-8.6 -16.4 53 -13  1035.5  -0.3  750  313    -7.6       
18 01.02.16 220 (ЮЗ) 4{10}  4000 м    10/10 2000 м 
[Ac As]
-10 -16.3 60 -14  1035.3  -0.1  749  315           
00 02.02.16 250 (З) 4000 м  слаб. ливневой снег  9/5 600 м кучево-дожд., средняя 
[Cb cap|Ac trans]
-11.7 -14.5 80 -14  1035.6  -0.1  749  317  -11.7    0.4  22  равномерный
сухой снег
100% 
06 02.02.16 230 (ЮЗ) 4{10}  20000 м  слаб. ливневой снег  10/5 600 м кучево-дожд., средняя, верхняя 
[Cb cap|Ac trans|Cs]
-9.3 -13.3 73 -13  1036.2  0.2  750  314           
12 02.02.16 220 (ЮЗ) 4000 м  {ливн. осадки}  8/4 600 м кучево-дожд., средняя, верхняя 
[Cb cap|Ac lent|Ci fib]
-10.3 -13.1 80 -14  1037.5  0.8  751  316    -8  0.2     
18 02.02.16 230 (ЮЗ) 4000 м  слаб. ливневой снег  9/8 600 м кучево-дожд., верхняя 
[Cb cap|Ci fib]
-11.3 -14.1 80 -16  1039.4  0.7  752  317           
00 03.02.16 230 (ЮЗ) 4000 м  {ливн. осадки}  8/3 2000 м средняя, верхняя 
[Ac lent|Ci fib]
-13.3 -16 80 -19  1040.8  0.2  753  320  -13.4    0.2  22  равномерный
сухой снег
100% 
06 03.02.16 220 (ЮЗ) 4{10}  20000 м  {ливн. осадки}  9/0 верхняя 
[Ci fib]
-9.3 -15 63 -13  1042.2  0.4  754  316           
12 03.02.16 360 (С) 4000 м    3/3 2000 м средняя 
[Ac trans]
-10.8 -13.6 80 -11  1042.5  0.1  754  318    -8  0.0     
18 03.02.16 220 (ЮЗ) 4000 м    ясно 
-11.2 -14.8 75 -14  1041.5  -0.5  754  318           
00 04.02.16 210 (ЮЗ) 2{10}  4000 м    ясно 
-11.3 -15.7 70 -13  1041.2  0.1  753  318  -11.8      22  равномерный
мокрый или
старый снег
100% 
06 04.02.16 270 (З) 1{10}  20000 м    ясно 
-5.9 -14.3 51 -6  1039.7  -1.1  753  311           
12 04.02.16 тихо ()   4000 м    3/0 верхняя 
[Ci fib]
-10.2 -15.5 65 -10  1038.4  -1.1  751  316    -4.5       
18 04.02.16 тихо ()   4000 м    ясно 
-16 -16.6 95 -16  1035.7  -1.7  749  322           
00 05.02.16 240 (ЮЗ) 4000 м    ясно 
-8.9 -16.8 53 -11  1031.2  -1.3  746  312  -18      22  равномерный
мокрый или
старый снег
100% 
06 05.02.16 210 (ЮЗ) 7-14{15}  20000 м  метель  3/0 верхняя 
[Ci fib]
-3.8 -14.8 42 -8  1026.1  -2.9  743  305           
12 05.02.16 210 (ЮЗ) 6-13{15}  4000 м  метель  10/10 2000 м 
[Ac As]
-3.4 -15.3 39 -8  1022.3  -1.8  740  303    -2.5       
18 05.02.16 220 (ЮЗ) 5-10{14}  4000 м  слаб. ливневой снег  9/5 600 м кучево-дожд., средняя 
[Cb cap|Ac trans]
-2.8 -9.9 58 -6  1019.3  -1.8  738  302           
00 06.02.16 230 (ЮЗ) 4000 м  слаб. ливневой снег  10/10 600 м кучево-дожд. 
[Cb cap]
-4 -5.9 87 -7    738  302         
06 06.02.16 220 (ЮЗ) 0500 м  ливневой снег  10/10 600 м кучево-дожд. 
[Cb cap]
-2.3 -3.5 91 -4  1018.4  -0.4  738  300           
12 06.02.16 220 (ЮЗ) н/о  ливневой снег  10/10 600 м кучево-дожд. 
[Cb cap]
-1.6 -2.4 94 -3  1013.1  -2.7  734  298    -1     
18 06.02.16 240 (ЮЗ) 4000 м  слаб. ливневой снег  10/10 600 м кучево-дожд. 
[Cb cap]
-0.2 -1.1 94 -3  1009.4  -0.5  731  295           
00 07.02.16 250 (З) 2{10}  4000 м  слаб. ливневой снег  10/10 600 м кучево-дожд. 
[Cb cap]
-1 -1.3 98 -2  1012.1  1.8  733  297  -1.7    32  равномерный
мокрый или
старый снег
100% 
06 07.02.16 280 (З) 2{10}  20000 м  слаб. ливневой снег  8/8 600 м кучево-дожд. 
[Cb cap]
-0.4 -5.1 70 -1  1017.4  2.1  737  298           
12 07.02.16 230 (ЮЗ) 4000 м  {ливн. осадки}  8/3 600 м кучево-дожд., средняя 
[Cb cap|Ac lent]
-3.6 -7.6 74 -5  1019.2  0.4  738  302    -0.3  0.0     
18 07.02.16 тихо ()   4000 м    8/8 2000 м средняя 
[Ac trans]
-7.3 -8.6 90 -7  1017.4  -1.6  737  306           
00 08.02.16 тихо ()   н/о  ливневой снег  10/10 600 м кучево-дожд. 
[Cb cap]
-7 -7.9 93 -7  1012.2  -2.8  733  304  -8.6    0.2  32  равномерный
сухой снег
100% 
06 08.02.16 090 (В) 4000 м  дымка{ливн. осадки, снег}  10/5 600 м кучево-дожд., средняя 
[Cb cap|As op]
-3.4 -4.8 90 -3  1005.7  -2.6  728  298           
12 08.02.16 тихо ()   4000 м    9/8 600 м кучево-дожд., верхняя 
[Cb cap|Ci fib]
-3.6 -4.1 96 -4  1001.5  -1  725  297    -1.9  0.8     
18 08.02.16 250 (З) 4000 м  слаб. снег  10/0 2000 м средняя 
[Ac As]
+1.2 -1.1 85 +2  1001.1  0.2  726  291           
00 09.02.16 260 (З) 4000 м  слаб. ливневой снег  10/10 600 м кучево-дожд. 
[Cb cap]
-0.4 -1.6 92 1001  -0.5  725  293  -3.7    0.8  32  равномерный
мокрый или
старый снег
100% 
06 09.02.16 270 (З) 20000 м  слаб. ливневой снег  9/6 600 м кучево-дожд., средняя, верхняя 
[Cb cap|Ac trans|Ci fib]
-1.9 -5 79 -4  1001  0.2  725  295           
12 09.02.16 250 (З) 4000 м  {ливн. осадки}  9/4 600 м кучево-дожд., верхняя 
[Cb cap|Ci fib]
-5.8 -9.7 74 -8  1006.9  4.1  729  301    -0.2  0.4     
18 09.02.16 290 (З) 1{10}  4000 м  слаб. ливневой снег  9/9 600 м кучево-дожд. 
[Cb cap]
-7.9 -11 78 -8  1012.9  2.1  733  305           
00 10.02.16 260 (З) 4{13}  4000 м  слаб. ливневой снег  9/6 600 м кучево-дожд., верхняя 
[Cb cap|Ci fib]
-10.3 -14.7 70 -14  1016.8  736  309  -10.4    0.2  31  равномерный
сухой снег
100% 
06 10.02.16 270 (З) 3{12}  20000 м  слаб. ливневой снег  10/4 600 м кучево-дожд., верхняя 
[Cb cap|Cs]
-10.1 -14.5 70 -13  1021.3  1.8  739  310           
12 10.02.16 260 (З) 4000 м  слаб. ливневой снег  10/6 600 м кучево-дожд., верхняя 
[Cb cap|Cs]
-12.3 -15.8 75 -14  1026.3  2.6  743  315    -10  0.4     
18 10.02.16 250 (З) 4000 м  слаб. ливневой снег  9/5 600 м кучево-дожд., верхняя 
[Cb cap|Ci fib]
-12.6 -16.1 75 -15  1031.7  2.2  746  317           
00 11.02.16 260 (З) 4000 м  слаб. ливневой снег  8/3 600 м кучево-дожд., верхняя 
[Cb cap|Ci fib]
-13.9 -17.4 75 -16  1035.6  1.9  749  319  -13.9    0.0  31  равномерный
сухой снег
100% 
06 11.02.16 250 (З) 20000 м  слаб. ливневой снег  9/4 600 м кучево-дожд., средняя, верхняя 
[Cb cap|Ac trans|Ci fib]
-12.2 -17.4 65 -16  1037.7  0.6  751  318           
12 11.02.16 220 (ЮЗ) 4000 м  слаб. ливневой снег  10/8 600 м кучево-дожд., верхняя 
[Cb cap|Cs]
-12.7 -17.9 65 -17  1038.9  0.8  751  318    -10.4  0.2     
18 11.02.16 230 (ЮЗ) 4000 м  в посл. час ливневой снег  9/8 600 м кучево-дожд., верхняя 
[Cb cap|Ci fib]
-12.2 -16.6 70 -16  1039.5  0.2  752  319           
00 12.02.16 200 (Ю) 4000 м    3/0 верхняя 
[Ci fib]
-13.6 -17.9 70 -16  1040.6  0.3  753  321  -15.7    0.0  29  равномерный
сухой снег
100% 
06 12.02.16 250 (З) 20000 м    3/0 верхняя 
[Ci fib]
-8.3 -15.9 54 -8  1041.2  0.6  754  315           
12 12.02.16 220 (ЮЗ) 4000 м    ясно 
-13 -16.5 75 -13  1043.3  1.3  755  321    -5.5       
18 12.02.16 тихо ()   4000 м    ясно 
-17.2 -18.4 90 -17  1045.5  0.6  756  327           
00 13.02.16 тихо ()   4000 м    ясно 
-21.5 -22.7 90 -22  1046.7  0.5  756  332  -21.6      29  равномерный
мокрый или
старый снег
100% 
06 13.02.16 060 (СВ) 4000 м  дымка  9/0 верхняя 
[Ci fib]
-12.8 -16.3 75 -13  1046  -0.5  757  321           
12 13.02.16 тихо ()   н/о  дымка  ясно 
-13.4 -16.1 80 -13  1046.3  0.4  757  322    -8.9       
18 13.02.16 240 (ЮЗ) н/о  дымка  ясно 
-17.8 -19 90 -18  1046.7  -0.3  757  328           
00 14.02.16 тихо ()   н/о  дымка  ясно 
-21.8 -23 90 -22  1046.8  -0.2  756  333  -22      29  равномерный
сухой снег
100% 
06 14.02.16 тихо ()   4000 м  дымка  ясно 
-14.1 -16.8 80 -14  1045.6  -0.1  756  323           
12 14.02.16 250 (З) н/о  дымка  9/4 2000 м средняя, верхняя 
[Ac trans|Ci fib]
-13.2 -16.7 75 -13  1044.3  -0.2  755  321    -8.9       
18 14.02.16 тихо ()   н/о  дымка  ясно 
-16.5 -17.8 90 -17  1044.2  -0.9  755  325           
00 15.02.16 тихо ()   4000 м    ясно 
-20.6 -21.8 90 -21  1043.6  -0.8  754  330  -20.7      29  равномерный
мокрый или
старый снег
100% 
06 15.02.16 080 (В) 20000 м    ясно 
-12.5 -16 75 -12  1040.3  -1.4  753  319           
12 15.02.16 240 (ЮЗ) н/о  дымка  ясно 
-13.8 -16.5 80 -14  1038.1  -1  751  320    -8.7       
18 15.02.16 тихо ()   н/о  дымка  ясно 
-13.7 -16.4 80 -14  1035.6  1.3  749  319           
00 16.02.16 240 (ЮЗ) 4000 м    ясно 
-15.6 -18.3 80 -19  1033.7  -1  748  321  -20.4      29  равномерный
мокрый или
старый снег
100% 
06 16.02.16 230 (ЮЗ) 3{10}  20000 м    3/0 верхняя 
[Ci fib]
-10.2 -16.5 60 -13  1032.6  -0.4  747  314           
12 16.02.16 230 (ЮЗ) 4000 м    4/0 верхняя 
[Ci fib]
-11 -15.4 70 -14  1031.1  -0.5  746  315    -8       
18 16.02.16 240 (ЮЗ) 4000 м  {снег}  9/8 2000 м средняя, верхняя 
[Ac trans|Ci fib]
-12.6 -14.6 85 -16  1030.5  -0.6  746  316           
00 17.02.16 260 (З) 4000 м    9/4 2000 м средняя, верхняя 
[Ac As|Ci fib]
-13.3 -16 80 -15  1029.6  -0.3  745  317  -13.4    0.0  29  равномерный
мокрый или
старый снег
100% 
06 17.02.16 240 (ЮЗ) 20000 м  слаб. ливневой снег  10/6 600 м кучево-дожд., средняя 
[Cb cap|Ac trans]
-10.1 -12.9 80 -14  1030  0.5  745  313           
12 17.02.16 250 (З) 4000 м  {ливн. осадки, морось}  9/4 600 м кучево-дожд., средняя 
[Cb cap|Ac trans]
-10.9 -13.7 80 -14  1033.3  1.8  748  315    -8.2  0.2     
18 17.02.16 240 (ЮЗ) н/о  ливневой снег  10/10 600 м кучево-дожд. 
[Cb cap]
-9.9 -13 78 -13  1032.1  -1.1  747  313           
00 18.02.16 250 (З) 3{10}  н/о  ливневой снег  10/10 600 м кучево-дожд. 
[Cb cap]
-9.8 -12.4 81 -13  1031  -0.1  746  313  -11.2    30  равномерный
сухой снег
100% 
06 18.02.16 300 (СЗ) 20000 м  слаб. ливневой снег  6/6 600 м кучево-дожд. 
[Cb cap]
-8.6 -14 65 -10  1037.4  3.5  751  314           
12 18.02.16 240 (ЮЗ) 4000 м  {ливн. осадки}  3/3 600 м 
[Cu hum]
-12.2 -14.9 80 -12  1045.2  3.7  756  320    -7.6  0.3     
18 18.02.16 тихо ()   4000 м    ясно 
-15.3 -16.6 90 -15  1046.4  -0.6  757  324           
00 19.02.16 220 (ЮЗ) 6-11{11}  4000 м  слаб. ливневой снег  10/10 600 м кучево-дожд. 
[Cb cap]
-12.2 -14.2 85 -18  1041.9  -2.7  754  319  -15.6    0.0  30  равномерный
сухой снег
100% 
06 19.02.16 180 (Ю) 4-13{16}  20000 м  слаб. ливневой снег  10/5 600 м кучево-дожд., средняя 
[Cb cap|Ac As]
-7.8 -11.8 73 -11  1036.9  -2.1  751  312           
12 19.02.16 210 (ЮЗ) 4{14}  4000 м  слаб. ливневой снег  10/10 600 м кучево-дожд. 
[Cb cap]
-7.3 -9.8 82 -11  1031.4  -2.6  747  310    -6.4  0.3     
18 19.02.16 220 (ЮЗ) н/о  ливневой снег  10/10 600 м кучево-дожд. 
[Cb cap]
-7.4 -9.5 85 -10  1024.6  -2.1  742  308           
00 20.02.16 240 (ЮЗ) н/о  ливневой снег  10/10 600 м кучево-дожд. 
[Cb cap]
-8.3 -9.8 89 -8  1023.6  741  309  -8.5    31  равномерный
сухой снег
100% 
06 20.02.16 240 (ЮЗ) 4000 м  ливневой снег  10/10 600 м кучево-дожд. 
[Cb cap]
-6.5 -9.3 80 -8  1024.7  0.4  742  307           
12 20.02.16 220 (ЮЗ) 4000 м  слаб. ливневой снег  10/4 600 м кучево-дожд., верхняя 
[Cb cap|Cs]
-8.9 -10.4 89 -9  1028.7  2.1  745  311    -5.8     
18 20.02.16 240 (ЮЗ) 4000 м  слаб. ливневой снег  10/8 600 м кучево-дожд., средняя, верхняя 
[Cb cap|Ac lent|Cs]
-10.7 -12 90 -11  1032.1  1.4  747  314           
00 21.02.16 тихо ()   19000 м  слаб. ливневой снег  10/6 600 м кучево-дожд., средняя, верхняя 
[Cb cap|Ac lent|Cs]
-13.6 -14.2 95 -14  1035.4  1.8  749  319  -13.8    31  равномерный
сухой снег
100% 
06 21.02.16 050 (СВ) 20000 м  слаб. ливневой снег  8/4 600 м кучево-дожд., средняя 
[Cb cap|Ac trans]
-9.3 -12.3 79 -9  1037.4  1.1  751  314           
12 21.02.16 220 (ЮЗ) 4000 м  {ливн. осадки}  8/3 600 м кучево-дожд., средняя, верхняя 
[Cb cap|Ac trans|Ci fib]
-12.1 -12.7 95 -14  1039.9  1.1  752  318    -8  0.6     
18 21.02.16 тихо ()   4000 м  {ливн. осадки}  10/4 2000 м средняя, верхняя 
[Ac lent|Cs]
-15.2 -15.8 95 -15  1042.4  1.1  754  323           
00 22.02.16 тихо ()   4000 м    3/0 верхняя 
[Ci fib]
-19.1 -19.7 95 -19  1044  0.9  755  328  -19.2    0.2  31  равномерный
сухой снег
100% 
06 22.02.16 тихо ()   10 км    ясно 
-12.1 -14.8 80 -12  1043.8  0.5  755  320           
12 22.02.16 260 (З) н/о  дымка  ясно 
-13 -14.3 90 -13  1043.6  0.2  755  321    -8.2       
18 22.02.16 250 (З) 4000 м    8/0 верхняя 
[Ci fib]
-12 -13.3 90 -15  1043.2  -0.1  755  319           
00 23.02.16 200 (Ю) 4000 м  слаб. ливневой снег  10/8 600 м кучево-дожд., верхняя 
[Cb cap|Cs]
-13.4 -15.4 85 -13  1042.7  -0.4  754  321  -15    0.0  31  равномерный
сухой снег
100% 
06 23.02.16 240 (ЮЗ) 10 км  слаб. ливневой снег  10/6 600 м кучево-дожд., верхняя 
[Cb cap|Cs]
-9.8 -12.9 78 -12  1040.8  -1.2  753  316           
12 23.02.16 220 (ЮЗ) 5{10}  н/о  ливневой снег  10/8 600 м кучево-дожд., средняя 
[Cb cap|As trans]
-9 -11 85 -14  1038.2  -0.7  751  314    -8.9     
18 23.02.16 220 (ЮЗ) 4000 м  слаб. ливневой снег  10/6 600 м кучево-дожд., средняя 
[Cb cap|Ac trans]
-9.1 -11.6 82 -13  1037.4  -0.3  751  314           
00 24.02.16 220 (ЮЗ) 4000 м  в посл. час ливневой снег  4/4 2000 м средняя 
[Ac trans]
-10.1 -12.1 85 -12  1037.3  -0.2  751  315  -10.4    0.7  31  равномерный
сухой снег
100% 
06 24.02.16 060 (СВ) 20000 м  {ливн. осадки}  9/6 600 м кучево-дожд., средняя, верхняя 
[Cb cap|Ac trans|Ci fib]
-6.4 -10.5 73 -6  1036.3  -0.7  750  311           
12 24.02.16 тихо ()   4000 м    10/5 600 м кучево-дожд., средняя, верхняя 
[Cb cap|Ac trans|Cs]
-6.7 -10 77 -7  1032.5  -1.9  748  310    -3.6  0.0     
18 24.02.16 220 (ЮЗ) 4{13}  4000 м  слаб. ливневой снег  10/6 600 м кучево-дожд., средняя 
[Cb cap|As op]
-4 -7 80 -7  1027.7  -0.9  744  305           
00 25.02.16 260 (З) 4000 м  {ливн. осадки}  10/4 600 м кучево-дожд., средняя 
[Cb cap|Ac As]
-2.6 -5.6 80 -4  1028.7  1.4  745  304  -6.9    0.2  30  равномерный
сухой снег
100% 
Время (UTC), дата Ветер
(°,м/с) 
Видим.   Явления Облачность Т
(°С)
Тd
(°С)
f(%) Тe
(°С)
Pmin
(гПа)
dP
(гПа)
Po
(мм)
O2
(г/м3)
Тmin Tmax R s Состояние
почвы